Location: Newark
(14.1000°N, 87.2167°W)
Time: 06:48:47
(UTC+00:00)

N. Korean satellite - Pass Details

Date: 17 July 2019
Orbit: 457 x 507 km, 97.2° (Epoch: 25 August)

Event Time Altitude Azimuth Distance (km) Brightness Sun altitude
Rises 10:38:15 0° 44° (NE) 2,591 11.7 -12.1°
Reaches altitude 10° 10:41:46 10° 80° (E) 1,711 10.7 -11.3°
Maximum altitude 10:42:52 11° 98° (E) 1,643 10.2 -11.1°
Drops below altitude 10° 10:43:58 10° 115° (ESE) 1,712 9.9 -10.8°
Sets 10:47:30 0° 152° (SSE) 2,595 10.3 -10.1°
